Погода в Орше

Погода в Орше : погода сейчас, прогноз погоды и архив. Всё, что Вы хотите узнать о погоде в Орше!

Хотите узнать прогноз погоды в Орше? Тогда Вам сюда: Погода в Орше

Поиск расширенной информации на нашем сайте:

Полезная информация:

Другие новости

Новости СМИ2

Главная страница сайта

Новости сайта

03.07.2017

Напоминаем, что на нашем специализированном сайте Метеоцентр.Азия вы можете получить высокодетализированные автоматические прогнозы погоды по пунктам России, СНГ и мира в авиационном формате (включающие направление и скорость ветра, видимость, явления погоды, количество и форму облачности, нижнюю и верхнюю границу облачности).

Рекомендуем:

Погода в Орше - сегодня

Время (UTC), дата Ветер
(°,м/с) 
Видим.   Явления Облачность Т
(°С)
Тd
(°С)
f(%) Тe
(°С)
Pmin
(гПа)
dP
(гПа)
Po
(мм)
O2
(г/м3)
Тmin Tmax R s Состояние
почвы
03 22.03.19 270 (З) 6000 м  слаб. дождь  10/10 330 м 
[Frnb|Ns]
+6 +4.9 93 +4  1014.5  -2.8  744  293         
06 22.03.19 290 (З) 5{11}  8000 м  слаб. дождь  10/10 360 м 
[Frnb|Ns]
+6.9 +4.9 87 +5  1014  -0.4  744  291  +4.1       
09 22.03.19 320 (СЗ) 8-13{19}  10 км  {дождь}  9/8 630 м средняя 
[Sc|Ac trans]
+6.6 -0.8 59 +4  1016.4  2.2  745  293           
12 22.03.19 320 (СЗ) 7-13{19}  10 км  {дождь}  5/0 средняя 
[Ac trans]
+7.2 -5 42 +5  1018.1  1.8  747  294           
15 22.03.19 350 (С) 7-11{19}  10 км    4/4 600 м 
[Cu med, cong]
+7.1 -5.7 40 +5  1019  0.9  747  294      0.0     
18 22.03.19 310 (СЗ) 6{17}  10 км    9/0 средняя 
[Ac trans]
+5.4 -8.1 37 +3  1021.3  749  297    +7.6  0.0     
21 22.03.19 350 (С) 5{13}  10 км    9/0 средняя 
[Ac trans]
+3.6 -6.6 47 +1  1022.8  1.3  750  299           
00 23.03.19 330 (СЗ) 4{12}  10 км    6/0 средняя 
[Ac trans]
+2 -6 55 1023.3  0.5  750  301           
03 23.03.19 330 (СЗ) 3{10}  10 км    ясно 
+0 -5.6 66 -2  1024.5  751  303           
06 23.03.19 340 (С) 10 км    9/6 1300 м средняя 
[Sc|Ac trans]
+0 -4.8 70 -2  1026  1.4  752  304  -0.4         
09 23.03.19 350 (С) 10 км    9/0 средняя, верхняя 
[Ac trans|Ci fib]
+4.5 -2.6 60 +3  1026.1  0.4  752  298           
12 23.03.19 270 (З) 10 км    9/0 верхняя 
[Ci fib]
+7.7 -0.9 54 +7  1024.7  -1  752  295           
15 23.03.19 250 (З) 10 км    9/0 верхняя 
[Ci fib]
+8.3 -0.9 52 +8  1022.7  -1.9  750  293           
18 23.03.19 220 (ЮЗ) 10 км    6/0 верхняя 
[Ci fib]
+4.2 -1.6 66 +5  1021.8  -1.3  749  297    +8.7       
21 23.03.19 180 (Ю) 10 км    4/0 верхняя 
[Ci fib]
+2.1 -2.2 73 +1  1020.2  -1.6  748  299           
00 24.03.19 210 (ЮЗ) 10 км    9/9 1410 м 
[Sc]
+4.1 -0.8 70 +2  1015.8  -4.3  745  296           
03 24.03.19 210 (ЮЗ) 6000 м  слаб. дождь  10/10 660 м 
[Frnb|Ns]
+1.9 +0.6 91 +3  1013.9  -1.9  743  297         
06 24.03.19 310 (СЗ) 10 км  {дождь}  ясно 
+3.9 +2.1 88 +3  1013.5  -0.2  743  295  +1.7       
09 24.03.19 300 (СЗ) 5{11}  10 км    3/3 600 м 
[Cu hum]
+7.6 -0.7 56 +6  1013.2  -0.1  743  291           
12 24.03.19 350 (С) 6-11{14}  10 км    5/5 600 м 
[Cu med, cong]
+8.8 -3.6 41 +7  1012.5  -0.6  743  290           
15 24.03.19 310 (СЗ) 5{13}  10 км    4/3 1000 м верхняя 
[Cu hum|Ci fib]
+8.4 -4.7 39 +7  1011.6  -0.9  742  290           
18 24.03.19 300 (СЗ) 3{11}  10 км    ясно 
+5.1 -4.3 51 +4  1012.7  0.8  743  294    +9.7       
21 24.03.19 290 (З) 10 км    ясно 
+2.3 -4.8 59 +2  1013  0.1  743  297           
00 25.03.19 270 (З) 10 км    ясно 
+0.5 -4.2 71 1012.7  -0.5  742  299           
03 25.03.19 тихо ()   10 км    ясно 
-2.6 -4.2 89 -3  1011.9  -1  741  302           
Время (UTC), дата Ветер
(°,м/с) 
Видим.   Явления Облачность Т
(°С)
Тd
(°С)
f(%) Тe
(°С)
Pmin
(гПа)
dP
(гПа)
Po
(мм)
O2
(г/м3)
Тmin Tmax R s Состояние
почвы

Для получения пояснительной информации подведите курсор к названию столбца.

ПОГОДА в Орше - архив

Всё, что Вы хотите узнать о погоде в Орше - удобно и подробно!

Выберите нужную дату (начиная с 1 января 2018* года) и нажмите кнопку "Найти".
Будут отображены архивные сводки погоды по пункту Орша, начиная с указанной даты.


Отображать данные в формате CSV (для использования в таблицах Excel)


Внимание! Наш архив погоды предназначен исключительно для личного некоммерческого использования в познавательных целях. Если Вам необходимы официальные справки о состоянии погоды (для производственных, юридических, коммерческих и т.п. целей), обращайтесь в органы Росгидромета.

*Примечание: данная дата относится к архиву по метеостанциям СССР (Россия, СНГ, Балтия).
Архив по метеостанциям Зарубежной Европы и Азии (кроме Китая) хранится 10 дней, по другим регионам земного шара (Китай, Африка, Америка, Австралия, Океания) - 1 день.

Орша - район местоположения метеостанции


Название, широта, долгота, высота метеостанции:
Орша 55°ш. 30.4°д. 185 м над ур. моря [Беларусь]

Дополнительная информация

В oтличие oт бoльшинства пoгoдных сайтoв мы публикуем пoдрoбную метеoинфoрмацию в детальнoм прoфессиoнальнoм фoрмате.

Характеристики температуры и влажнoсти вoздуха измеряются на высoте 2 м в тени вдали oт зданий и деревьев.
Скoрoсть ветра измеряется на высoте 10 м (на урoвне рoста челoвека скoрoсть ветра ниже в 1.5-2 раза). Если метеoстанция нахoдится в гoрoде или в лесу, тo скoрoсть ветра занижена на 2-4 м/с пo сравнению с oткрытым местoм. Скoрoсть ветра над акватoриями крупных рек и oзёр, а также на вершинах хoлмoв на 2-5 м/с выше, чем в oбычных услoвиях.
Атмoсфернoе давление в разных тoчках местнoсти мoжет значительнo oтличаться oт давления на метеoстанции, в зависимoсти oт услoвий рельефа (при пoдъёме на 10 м давление пoнижается примернo на 1 мм рт.ст.).